This is the latest recevied weather packets stored in our database for station/object IZ1RFL-3. If no packets are shown the sender has not sent any weather packets the latest 10 day(s).
| Time | Temp. | Humidity | Pressure | Rain* | Wind** | Luminosity | Snow |
|---|---|---|---|---|---|---|---|
| 1778063467 | 20.56° C | 55% | 1008.7 hPa | - | - | - | - |
| 1778062567 | 17.78° C | 61% | 1008.8 hPa | - | - | - | - |
| 1778061667 | 17.78° C | 60% | 1008.9 hPa | - | - | - | - |
| 1778060767 | 18.33° C | 60% | 1009 hPa | - | - | - | - |
| 1778059867 | 17.22° C | 65% | 1009.1 hPa | - | - | - | - |
| 1778058967 | 17.78° C | 60% | 1009.1 hPa | - | - | - | - |
| 1778058067 | 16.67° C | 72% | 1009.2 hPa | - | - | - | - |
| 1778057167 | 16.67° C | 68% | 1009.1 hPa | - | - | - | - |
| 1778056267 | 15.56° C | 67% | 1009.2 hPa | - | - | - | - |
| 1778055367 | 16.11° C | 75% | 1009.2 hPa | - | - | - | - |
| 1778054467 | 15° C | 76% | 1009.3 hPa | - | - | - | - |
| 1778053567 | 14.44° C | 80% | 1009.3 hPa | - | - | - | - |
| 1778052666 | 15° C | 79% | 1009.3 hPa | - | - | - | - |
| 1778051767 | 14.44° C | 81% | 1009.1 hPa | - | - | - | - |
| 1778050866 | 14.44° C | 82% | 1009.1 hPa | - | - | - | - |
| 1778049966 | 14.44° C | 79% | 1009.2 hPa | - | - | - | - |
| 1778049066 | 15° C | 80% | 1009.1 hPa | - | - | - | - |
| 1778048166 | 13.89° C | 86% | 1009.4 hPa | - | - | - | - |
| 1778046366 | 13.33° C | 87% | 1009.5 hPa | - | - | - | - |
| 1778045466 | 12.78° C | 88% | 1009.7 hPa | - | - | - | - |
| 1778044566 | 12.78° C | 89% | 1009.7 hPa | - | - | - | - |
| 1778043666 | 12.78° C | 89% | 1009.7 hPa | - | - | - | - |
| 1778042767 | 12.22° C | 89% | 1009.9 hPa | - | - | - | - |
| 1778041866 | 12.22° C | 89% | 1010 hPa | - | - | - | - |
| 1778040966 | 12.22° C | 88% | 1010 hPa | - | - | - | - |
* Rain since midnight (hover to see other rain measurements)
** Current wind speed in m/s (hover to see current wind gust speed)